Regional Weather Roundup
Issued by NWS Wakefield, VA

Home | Current Version | Previous Version | Graphics & Text | Print | Product List | Glossary On
Versions: 1 2 3 4 5 6 7 8 9 10 11 12 13 14 15 16 17 18 19 20 21 22 23 24 25 26 27 28 29 30 31 32 33 34 35 36 37 38 39 40 41 42 43 44 45 46 47 48 49 50
000
ASUS41 KAKQ 270914
RWRAKQ

REGIONAL WEATHER ROUNDUP
NATIONAL WEATHER SERVICE WAKEFIELD VA
500 AM EDT FRI MAR 27 2015

Note: "fair" indicates few or no clouds below 12,000 feet with no
significant weather and/or obstructions to visibility. * = Denotes
station may not report precipitation (e.g., rain,snow,etc.),
thunder or fog.

VAZ042-051-052>054-056-271000-
NORTHERN VIRGINIA

CITY           SKY/WX    TMP DP  RH WIND       PRES   REMARKS
WASH NATIONAL  LGT RAIN  46  40  79 N13G23    29.82R
DULLES         RAIN      42  38  85 N7        29.81S FOG
FORT BELVOIR   LGT RAIN  44  40  87 NW9G17    29.82S
QUANTICO       LGT RAIN  45  40  82 NE12G25   29.83S
FREDERICKSBRG* LGT RAIN  46  46 100 N10       29.80F
STAFFORD*      LGT RAIN  43  32  64 N12       29.85S
WARRENTON      RAIN      44  44 100 N7        29.81S
CULPEPER*      RAIN      45  43  93 NE6       29.81F
MANASSAS*      CLOUDY    43  43 100 N9        29.82S
LEESBURG*      RAIN      43  43 100 CALM      29.82S
WINCHESTER     LGT RAIN  43  36  75 NW10      29.80S
FRONT ROYAL*   CLOUDY    41  41 100 CALM      29.79F
LURAY*         LGT RAIN  43  43 100 CALM      29.79F
$$

VAZ048-049-060>072-079>083-271000-
CENTRAL AND SOUTH CENTRAL VIRGINIA

CITY           SKY/WX    TMP DP  RH WIND       PRES   REMARKS
RICHMOND       CLOUDY    49  41  74 N17G26    29.75F
CHESTERFIELD*  CLOUDY    48  34  57 N16       29.76F
PETERSBURG*    CLOUDY    50  42  73 N17G26    29.74S
HANOVER        CLOUDY    47  41  80 N8G17     29.78F
TAPPAHANNOCK*  CLOUDY    47  41  79 N12G20    29.77S
QUINTON*       CLOUDY    46  43  87 N10G22    29.74F
CHARLOTTSVILLE LGT RAIN  44  40  85 N5        29.77F
GORDONSVILLE*  CLOUDY    43  42  96 NE7       29.78F
ORANGE*        LGT RAIN  45  43  93 N7        29.81R
LOUISA*        DRIZZLE   45  43  93 N9        29.77F
BUMPASS*       CLOUDY    44  42  91 N8        29.78F
FARMVILLE*     RAIN      48  48 100 NE10G17   29.74F
CREWE*         CLOUDY    48  40  76 MISG      29.75R
FORT PICKETT*  CLOUDY    49  41  75 N13G22    29.72S
CHASE CITY*    CLOUDY    52  47  84 N10G21    29.71R
CLARKSVILLE*   CLOUDY    57  52  82 NW7G18    29.67F
SOUTH HILL*    CLOUDY    53  47  81 N15G22    29.74R
LAWRENCEVILLE* CLOUDY    51  44  78 N9G21     29.69R
EMPORIA*       CLOUDY    54  46  76 NW21G26   29.70R
$$

VAZ088>098-271000-
SOUTHEAST VIRGINIA

CITY           SKY/WX    TMP DP  RH WIND       PRES   REMARKS
NORFOLK        CLOUDY    50  44  80 N16G24    29.69R
VIRGINIA BEACH CLOUDY    54  44  69 N21G28    29.67R
NORFOLK NAVAL  CLOUDY    52  44  74 N22       29.70R
WEST POINT*    CLOUDY    52  45  76 N10G18    29.75S
SALUDA*        CLOUDY    49  42  78 N14G24    29.73S
NEWPORT NEWS   NOT AVBL
LANGLEY AFB    CLOUDY    52  49  89 NE9       29.68F
FORT EUSTIS    CLOUDY    53  47  79 N15G21    29.68R
WILLIAMSBURG*  CLOUDY    54  48  82 N8        29.71S
HR EXEC AP*    PTSUNNY   63  55  77 SW6       29.65F
FRANKLIN*      CLOUDY    61  57  84 S5        29.64F
WAKEFIELD      CLOUDY    54  45  71 N10G18    29.70R
$$

VAZ020-022-025-037-045-271000-
WEST CENTRAL AND SOUTHWEST VIRGINIA

CITY           SKY/WX    TMP DP  RH WIND       PRES   REMARKS
STAUNTON*      LGT RAIN  42  39  90 NE7       29.77F
WAYNESBORO*    CLOUDY    40  39  95 N5        29.76F
HOT SPRINGS VA SNOW      33  33 100 NW12      29.69F VSB 1/4 WCI  24
LYNCHBURG      LGT RAIN  46  44  93 N7        29.76R FOG
DANVILLE       CLOUDY    54  45  71 N15G24    29.72S
SOUTH BOSTON*  CLOUDY    54  49  83 N14G20    29.71R
MARTINSVILLE   CLOUDY    49  39  69 N12       29.76S
ROANOKE        LGT RAIN  44  37  76 NW10      29.77F
BLACKSBURG     CLOUDY    38  36  94 W6        29.80S
DUBLIN*        CLOUDY    41  37  87 NW6       29.79R
MARION*        CLOUDY    40  35  81 NW8       29.80F
HILLSVILLE*    MIX PCPN  37  36  94 N12       29.75S
RICHLANDS*     SNOW      34  33  94 NW3       29.80S VSB 1/2
WISE*          FOG       36  36 100 N7        29.82F VSB 1/2
ABINGDON*      RAIN      42  39  90 CALM      29.79F
$$

MDZ021>025-VAZ099-100-271000-
SOUTHERN MARYLAND AND THE DELMARVA PENINSULA

CITY           SKY/WX    TMP DP  RH WIND       PRES   REMARKS
PATUXENT RIVER CLOUDY    47  41  80 N18G25    29.76R
BAY BRIDGE APT DRIZZLE   43  43 100 N16       29.80S
LEONARDTOWN    CLOUDY    45  41  87 NW7       29.77F
DOVER          LGT RAIN  45  45 100 NW14      29.71F
GEORGETOWN     CLOUDY    47  42  83 NW14G22   29.74R
EASTON         DRIZZLE   46  46 100 N13       29.81R
CAMBRIDGE      CLOUDY    46  41  81 N15G25    29.76R
SALISBURY      CLOUDY    47  43  86 N14G25    29.71R
OCEAN CITY     CLOUDY    49  45  86 N18       29.70R
WALLOPS ISLAND CLOUDY    50  46  86 N14G24    29.70R
ACCOMACK*      CLOUDY    46  41  81 N21G30    29.70R
$$

NCZ012>017-030>032-271000-
NORTH CENTRAL AND EASTERN NORTH CAROLINA

CITY           SKY/WX    TMP DP  RH WIND       PRES   REMARKS
ROANOKE RAPIDS CLOUDY    61  55  82 SW3       29.64F
RALEIGH        MOCLDY    62  57  83 NW8       29.65F
ELIZABETH CITY CLOUDY    63  58  83 SW13      29.65F
AHOSKIE*       CLOUDY    62  56  81 S3        29.64F
EDENTON*       LGT RAIN  62  57  84 SW5       29.66F
CURRITUCK*     CLOUDY    64  55  73 SW6       29.66F
KILL DEVIL HLS CLOUDY    65  57  77 SW8       29.65F
MANTEO         CLOUDY    62  56  81 SW12      29.66F
CAPE HATTERAS  CLOUDY    62  59  90 W8        29.69S
TARBORO*       CLOUDY    64  57  80 S5        29.66F
GOLDSBORO      CLOUDY    64  64  98 S1        29.64F
WASHINGTON     LGT RAIN  62  59  89 SW6       29.67F
GREENVILLE     DRIZZLE   63  57  82 S9        29.69F
NEW BERN       LGT RAIN  64  60  87 S8        29.69F
WILMINGTON     LGT RAIN  63  62  97 S3        29.69F
$$

VAZ048-271000-
ELSEWHERE

CITY           SKY/WX    TMP DP  RH WIND       PRES   REMARKS
HARRISBURG PA  LGT RAIN  42  36  79 NW13      29.80R
BALTIMORE      LGT RAIN  42  38  85 NW10G18   29.81R FOG
ANNAPOLIS      LGT RAIN  44  40  85 N15       29.79R FOG
ANDREWS AFB    LGT RAIN  44  42  93 NW16      29.79F
PHILADELPHIA   LGT RAIN  43  38  82 N15G25    29.78R
HENDERSON NC   CLOUDY    60  51  72 NW12      29.67S
GREENSBORO     CLOUDY    54  40  59 N12G17    29.70S
ROCKY MOUNT    CLOUDY    64  58  80 S6        29.65F
$$

VAZ100-271000-
MARINE

STATION/POSITION TIME  TEMP    WIND        PRES    WAVE   SWELL
                       AIR SEA DIR/SP/G            HT/PER HT/PER
                 (UTC) (F)     (DEG/KT/KT) (MB)    (FT/S) (FT/S)
BRANDYWINE LGT   0800   43 40  350/ 19/ 21 1005.8F
CAPE MAY NJ      0800   44 44   CALM  /  3 1005.2F
LEWES DE         0800   44 43  340/ 17/ 20 1005.6F
15NM E FENWICK I 0850   43 40              1004.7R   8/11
OCEAN-CITY-INLET 0800   51 40  340/ 11/ 13 1004.3F
WACHAPREAGUE VA  0800   51 50  320/  6/ 12 1004.9F
THOMAS POINT MD  0900                        N/A
COVE POINT MD    0800   44     350/ 20/ 22 1007.4R
SOLOMONS ISLAND  0800      44                N/A
BISHOPS HEAD MD  0806          340/ 16/ 18   N/A
PINEY POINT MD   0800          350/ 18/ 21   N/A
CAMBRIDGE MD     0800   46 45  340/ 14/ 18 1007.3R
LEWISETTA VA     0800   48 45              1007.0R
RAPPAHANNOCK LGT 0800          340/ 26/ 29 1005.8F
STINGRAY PT      0900   47 44  360/ 17/ 19   N/A     2/ 3
YORK RVR RNG VA  0800   50      30/ 18/ 21 1004.6R
YORKTOWN VA      0800   55 46  340/ 12/ 15 1005.3R
DOMINION TERM VA 0800   58     230/  6/  6 1003.9F
KIPTOPEKE VA     0800      49  360/ 17/ 23   N/A
CHES BAY BRIDGE  0800   62 43  210/ 13/ 16 1003.6F
CAPE HENRY VA    0800   66     210/ 10/ 16 1002.8F
CHESAPEAKE LGHT  0800   59     220/ 25/ 25 1003.9F
WILLOUBY STN VA  0806   63     220/ 12/ 13 1004.6F
S CRANEY ISL VA  0800          210/  6/ 10 1004.0F
CAPE HENRY BUOY  0828      44                N/A     4/ 9   2/11
1ST LANDING BUOY 0900   47     360/ 25/ 31 1004.9R   2/ 3
OFFSHORE WE BUOY 0811      41                N/A     5/ 9   5/ 9
64NM E OF VA BCH 0850   56 51  220/ 14/ 16 1003.3F   8/10   7/10
DUCK PIER NC     0800   63 40  220/ 11/ 16 1004.1F
44056 DUCK FRF   0811      42                N/A     4/ 8   2/11
OREGON INLET NC  0800   60 60  210/  8/  9 1005.4F
HATTERAS NC      0800   64 60  240/  8/ 12 1006.0
CAPE LOOKOUT NC  0900   64     240/  9/ 13 1005.2F
$$


USA.gov is the U.S. government's official web portal to all federal, state and local government web resources and services.